Satellite-Ground Cal/Val Region Overpasses Predictions

Prediction of Satellite NPP Overpassing Cal/Val Region: PacNW

Region Location: (Latitude: 10.00, Longitude: 139.50) to (Latitude: 22.70, Longitude: 165.60).

Table of predicted overpasses for the next 14.0 days since TLE Epoch: 7/10/2021
Interval Starting Time Starting Location Ending Time Ending Location
1 07/10/2021 15:36:42 ( 22.70, 150.72) 07/10/2021 15:40:18 ( 10.02, 147.70)
2 07/11/2021 02:45:48 ( 10.03, 158.23) 07/11/2021 02:49:23 ( 22.65, 155.23)
3 07/11/2021 15:17:41 ( 22.66, 155.47) 07/11/2021 15:21:16 ( 10.04, 152.46)
4 07/12/2021 02:26:46 ( 10.01, 162.99) 07/12/2021 02:30:22 ( 22.69, 159.97)
5 07/12/2021 14:58:40 ( 22.68, 160.23) 07/12/2021 15:02:16 ( 10.00, 157.21)
6 07/13/2021 02:10:22 ( 19.21, 165.59) 07/13/2021 02:11:21 ( 22.66, 164.73)
7 07/13/2021 03:49:16 ( 10.05, 142.36) 07/13/2021 03:52:41 ( 22.08, 139.51)
8 07/13/2021 14:39:40 ( 22.64, 164.97) 07/13/2021 14:43:15 ( 10.02, 161.97)
9 07/13/2021 16:21:08 ( 22.70, 139.61) 07/13/2021 16:21:15 ( 22.29, 139.51)
10 07/14/2021 03:30:14 ( 10.03, 147.12) 07/14/2021 03:33:49 ( 22.65, 144.12)
11 07/14/2021 16:02:08 ( 22.66, 144.36) 07/14/2021 16:05:43 ( 10.04, 141.36)
12 07/15/2021 03:11:13 ( 10.01, 151.88) 07/15/2021 03:14:49 ( 22.68, 148.87)
13 07/15/2021 15:43:07 ( 22.68, 149.12) 07/15/2021 15:46:43 ( 10.00, 146.10)
14 07/16/2021 02:52:12 ( 10.04, 156.63) 07/16/2021 02:55:47 ( 22.66, 153.63)
15 07/16/2021 15:24:06 ( 22.64, 153.87) 07/16/2021 15:27:41 ( 10.02, 150.86)
16 07/17/2021 02:33:11 ( 10.02, 161.39) 07/17/2021 02:36:46 ( 22.64, 158.39)
17 07/17/2021 15:05:05 ( 22.66, 158.63) 07/17/2021 15:08:40 ( 10.04, 155.62)
18 07/18/2021 02:14:50 ( 12.41, 165.60) 07/18/2021 02:17:45 ( 22.68, 163.13)
19 07/18/2021 03:55:39 ( 10.01, 140.78) 07/18/2021 03:57:12 ( 15.47, 139.51)
20 07/18/2021 14:46:03 ( 22.68, 163.39) 07/18/2021 14:49:39 ( 10.01, 160.37)
21 07/19/2021 03:36:39 ( 10.04, 145.52) 07/19/2021 03:40:14 ( 22.67, 142.52)
22 07/19/2021 14:30:04 ( 12.02, 165.59) 07/19/2021 14:30:38 ( 10.03, 165.13)
23 07/19/2021 16:08:33 ( 22.64, 142.76) 07/19/2021 16:12:08 ( 10.02, 139.75)
24 07/20/2021 03:17:37 ( 10.02, 150.28) 07/20/2021 03:21:12 ( 22.65, 147.28)
25 07/20/2021 15:49:31 ( 22.66, 147.52) 07/20/2021 15:53:06 ( 10.04, 144.51)
26 07/21/2021 02:58:36 ( 10.00, 155.04) 07/21/2021 03:02:12 ( 22.68, 152.02)
27 07/21/2021 15:30:30 ( 22.68, 152.28) 07/21/2021 15:34:06 ( 10.00, 149.26)
28 07/22/2021 02:39:36 ( 10.04, 159.79) 07/22/2021 02:43:11 ( 22.67, 156.79)
29 07/22/2021 15:11:29 ( 22.64, 157.02) 07/22/2021 15:15:04 ( 10.02, 154.02)
30 07/23/2021 02:20:34 ( 10.02, 164.55) 07/23/2021 02:24:09 ( 22.65, 161.55)
